Flag for Lithuania Weather past 2 weeks in Kaunas, Lithuania

Now
55 °F

Passing clouds.


Feels Like: 55 °F
Forecast: 53 / 80 °F
Wind: 5 mph from North

Location: Kaunas

Current Time: Jul 2, 2015 at 7:50:09 AM

Latest Report: Jul 2, 2015 at 7:20 AM


Visibility: N/A

Pressure: 30.33 "Hg

Humidity: 77%

Dew point: 48 °F

Location of KaunasLocation

Historic Weather in Kaunas — Graph

°F

Kaunas temperature yesterday

Maximum temperature yesterday: 73 °F (at 5:50 PM)
Minimum temperature yesterday: 57 °F (at 2:50 AM)
Average temperature yesterday: 63 °F

Past Weeks' High & Low Weather Summary

 TemperatureHumidityPressure
High73 °F (Jun 29, 11:50 AM)100% (Jun 22, 4:20 AM)30.33 "Hg (Jun 22, 4:20 AM)
Low43 °F (Jun 20, 3:50 AM)30% (Jun 17, 3:50 PM)29.71 "Hg (Jun 23, 7:20 AM)
Average59 °F66%29.96 "Hg
* Reported Jun 17 6:20 AM — Jul 2 6:20 AM, Kaunas, Weather by CustomWeather, © 2015

Note: Actual official high and low records may vary slightly from our data, if they occured in-between our weather recording intervals... More about our weather records

Advertising

Kaunas weather history for previous 24 hours

 ConditionsComfort  
Time TempWeatherWind HumidityBarometerVisibility
6:20 AM
Thu, Jul 2
54 °FPassing clouds.3 mph82%30.33 "HgN/A
5:50 AM54 °FPassing clouds.2 mph82%30.33 "HgN/A
5:20 AM54 °FClear.7 mph82%30.30 "Hg10 mi
4:50 AM54 °FPassing clouds.7 mph77%30.30 "HgN/A
4:20 AM54 °FPassing clouds.7 mph77%30.30 "HgN/A
3:50 AM54 °FPassing clouds.6 mph77%30.30 "HgN/A
3:20 AM54 °FCool.5 mph77%30.30 "HgN/A
2:50 AM54 °FCool.6 mph77%30.30 "HgN/A
2:20 AM55 °FCool.6 mph72%30.30 "HgN/A
1:50 AM55 °FPassing clouds.5 mph72%30.30 "HgN/A
12:50 AM57 °FCool.6 mph67%30.27 "HgN/A
12:20 AM57 °FCool.6 mph67%30.27 "HgN/A
11:50 PM
Wed, Jul 1
59 °FPassing clouds.7 mph63%30.27 "HgN/A
11:20 PM59 °FPassing clouds.7 mph63%30.24 "HgN/A
10:50 PM61 °FPassing clouds.7 mph52%30.24 "HgN/A
10:20 PM63 °FPassing clouds.7 mph45%30.24 "HgN/A
9:50 PM64 °FPassing clouds.8 mph43%30.21 "HgN/A
9:20 PM66 °FPassing clouds.9 mph37%30.21 "HgN/A
8:50 PM68 °FPassing clouds.8 mph40%30.21 "HgN/A
8:20 PM70 °FPassing clouds.7 mph38%30.18 "HgN/A
7:50 PM70 °FPassing clouds.10 mph38%30.18 "HgN/A
7:20 PM72 °FPassing clouds.10 mph36%30.18 "HgN/A
6:50 PM72 °FPassing clouds.8 mph36%30.18 "HgN/A
6:20 PM72 °FPassing clouds.13 mph36%30.18 "HgN/A
5:50 PM73 °FPassing clouds.12 mph33%30.15 "HgN/A
5:20 PM72 °FPassing clouds.13 mph36%30.15 "HgN/A
4:50 PM72 °FPassing clouds.10 mph38%30.15 "HgN/A
4:20 PM72 °FPassing clouds.13 mph38%30.18 "HgN/A
3:50 PM70 °FPassing clouds.13 mph40%30.15 "HgN/A
3:20 PM72 °FPartly sunny.12 mph38%30.15 "HgN/A
2:50 PM70 °FPartly sunny.8 mph46%30.15 "HgN/A
2:20 PM68 °FBroken clouds.9 mph53%30.18 "HgN/A
1:50 PM68 °FPartly sunny.8 mph53%30.18 "HgN/A
1:20 PM66 °FBroken clouds.7 mph60%30.18 "HgN/A
12:50 PM64 °FBroken clouds.7 mph64%30.18 "HgN/A
12:20 PM63 °FBroken clouds.6 mph68%30.18 "HgN/A
11:50 AM61 °FMostly cloudy.5 mph72%30.18 "HgN/A
11:20 AM59 °FOvercast.5 mph77%30.18 "HgN/A
10:50 AM59 °FOvercast.6 mph77%30.18 "HgN/A
10:20 AM59 °FOvercast.7 mph77%30.18 "HgN/A
9:50 AM59 °FLow clouds.6 mph82%30.15 "HgN/A
9:20 AM57 °FLow clouds.5 mph82%30.15 "HgN/A
8:50 AM57 °FLow clouds.5 mph82%30.15 "HgN/A
8:20 AM57 °FLow clouds.7 mph82%30.15 "HgN/A
7:50 AM57 °FLow clouds.6 mph82%30.15 "HgN/A
7:20 AM57 °FLow clouds.5 mph88%30.15 "Hg6 mi
Weather by CustomWeather, © 2015

See weather overviewHow to use our weather pages